sat.trackr.live / text

‹ back to catalog

YAOGAN-50 01

NORAD 67433 · 2026-006A

PAYLOAD ACTIVE UNKNOWN

§ Identity

Operator
Country
PRC
Launch date
2026-01-13
Launch site
TAISC
Launch vehicle
Mass (kg)
RCS (m²)

External: N2YO · Heavens-Above · Gunter

§ Orbital elements

Epoch: 2026-05-25T02:04:06.320064Z

Period
104.10 min
Inclination
142.0350°
Eccentricity
0.0000912
Mean motion
13.83243629 rev/d
Perigee alt
951.7 km
Apogee alt
953.1 km
Semi-major
7,330.5 km
B*
1.0203e-4
RAAN
104.1291°
Arg perigee
273.9430°
Mean anomaly
86.1185°
Rev number
1,823

§ Raw data

YAOGAN-50 011 67433U 26006A   26145.08618426  .00000301  00000+0  10203-3 0  99922 67433 142.0350 104.1291 0000912 273.9430  86.1185 13.83243629 18232

JSON: /api/v1/satellites/67433 · /tle

For live sub-satellite position, see the globe view (requires WebGL).

§ Visibility from observer

Set your observer location to see the next 7 days of passes ≥ 10°. The values pass through the URL so the page stays shareable.

No JS? Fill the form by hand. The geolocation button needs JavaScript.